Regional Weather Roundup
Issued by NWS

Home | Current Version | Previous Version | Text Only | Print | Product List | Glossary Off
Versions: 1 2 3 4 5 6 7 8 9 10 11 12 13 14 15 16 17 18 19 20 21 22 23 24 25 26 27 28 29 30 31 32 33 34 35 36 37 38 39 40 41 42 43 44 45 46 47 48 49 50

000
ASUS45 KCYS 282310
RWRWY

WYOMING REGIONAL WEATHER ROUNDUP
NATIONAL WEATHER SERVICE CHEYENNE WY
500 PM MDT FRI APR 28 2017

NOTE:  "FAIR" INDICATES FEW OR NO CLOUDS BELOW 12,000 FEET
WITH NO SIGNIFICANT WEATHER AND/OR OBSTRUCTIONS TO VISIBILITY.

WYZ001-290000-
YELLOWSTONE NATIONAL PARK

CITY           SKY/WX    TMP DP  RH WIND       PRES   REMARKS
LK YELLOWSTONE   N/A     34  22  61 CALM      29.98R
W YELLOWSTONE  NOT AVBL

$$
WYZ002>013-054>058-071-098>099-290000-
NORTHERN WYOMING

CITY           SKY/WX    TMP DP  RH WIND       PRES   REMARKS
JACKSON        PTSUNNY   41  28  60 N12       29.90R
CODY           FAIR      38  31  76 N18       30.04S WCI  28
GREYBULL       CLOUDY    47  23  38 NW14      29.99R
WORLAND        CLOUDY    39  36  89 S14       30.02R WCI  31
SHERIDAN       CLOUDY    36  33  89 SW6       30.10R WCI  31
BUFFALO        LGT SNOW  34  29  82 W9        30.08R WCI  27
GILLETTE       PTSUNNY   36  31  82 W5        30.05R WCI  32
HULETT         CLOUDY    43  27  52 E12       30.06R
NEWCASTLE      FAIR      41  19  42 E7        30.03R

$$
WYZ014>020-022>026-101>103-290000-
CENTRAL WYOMING

CITY           SKY/WX    TMP DP  RH WIND       PRES   REMARKS
BIG PINEY      FAIR      35  28  75 SW13      29.89R WCI  26
PINEDALE       FAIR      36  18  48 NE10G17   29.89R WCI  28
DUBOIS         LGT SNOW  32  27  80 S17       29.93R WCI  21
LANDER         LGT SNOW  32  30  92 NE7       29.99R FOG     WCI  26
RIVERTON       SNOW      31  31 100 MISG      30.00R VSB 1/4
CASPER         FLURRIES  32  28  85 E21G35    29.98R WCI  20
DOUGLAS        LGT SNOW  31  27  85 E22G28    30.02R FOG     WCI  18

$$
WYZ021-027>030-104>119-290000-
SOUTHERN WYOMING

CITY           SKY/WX    TMP DP  RH WIND       PRES   REMARKS
EVANSTON       LGT SNOW  32  29  88 N20G31    29.87R VSB 3/4 WCI  20
KEMMERER       SNOW      32  28  86 E14       29.89R VSB 1/2 WCI  22
FORT BRIDGER   LGT SNOW  30  30 100 NE8       29.90R VSB 3/4 WCI  23
ROCK SPRINGS   CLOUDY    34  26  72 NE23G29   29.87R WCI  22
DIXON            N/A     41  26  55 CALM      29.83R
RAWLINS        CLOUDY    32  25  75 E23       29.85R WCI  19
SARATOGA       LGT SNOW  32  28  86 CALM      29.83R
LARAMIE        CLOUDY    29  22  75 E23G30    29.84R WCI  15
CHEYENNE       SNOW      29  26  89 NE16G28   29.91R VSB 1/2 WCI  17
TORRINGTON     LGT SNOW  33  31  92 NE17      30.00R FOG     WCI  22
PINE BLUFFS    CLOUDY    32  32 100 NE18      29.93R WCI  20

$$



USA.gov is the U.S. government's official web portal to all federal, state and local government web resources and services.